Temperature
7 6 6 6 7 8 8 8 8 8 9 9 8 8 8 9 9 8 8 9 9 9 9 10 10 10 11 11 11 11 11 11 11 12 12 12 12 12 12 11 11 11 11 11
5 5 7 7 8 8 8 7 7 8 9 9 8 8 8 8 8 8 8 8 8 9 9 9 10 10 10 10 10 11 11 11 11 11 11 11 11 11 11 11 11 11 11 11
5 6 7 8 7 7 7 7 7 7 8 8 8 7 8 8 8 8 8 8 8 9 9 9 9 9 10 10 10 10 10 10 10 10 10 10 10 10 10 11 11 11 10 10
5 6 7 7 7 7 7 7 8 7 7 6 7 6 7 7 7 7 7 7 8 8 8 8 9 9 9 9 9 10 10 10 10 10 10 10 10 10 10 10 10 10 10 10
5 6 6 6 7 7 7 7 7 7 6 6 6 6 6 6 6 6 6 7 8 8 8 8 8 8 8 9 9 9 9 9 9 9 9 10 10 10 10 10 10 10 10 10
5 6 6 6 7 7 7 7 6 6 5 6 6 6 6 5 6 6 6 7 7 8 8 8 8 8 8 8 8 8 9 9 9 9 9 9 9 9 9 9 9 9 9 9
4 5 5 6 6 6 6 5 5 5 5 5 6 6 6 6 6 6 6 7 7 7 7 7 7 7 8 8 8 8 8 8 8 8 8 8 8 8 9 9 9 9 9 9
3 4 4 5 5 5 5 5 5 5 5 5 6 5 5 6 6 7 7 7 7 7 7 7 7 7 7 7 7 7 7 8 8 8 8 8 8 8 8 8 8 8 8 8
3 4 5 5 5 6 5 4 5 4 4 4 4 5 5 6 5 5 5 6 6 6 6 6 6 7 7 7 7 7 7 7 7 7 7 7 7 7 7 7 7 7 8 8
3 3 4 4 5 5 5 4 3 4 4 5 5 4 4 4 4 4 4 4 5 5 5 6 6 6 6 6 7 6 6 6 6 7 7 7 7 7 7 7 7 7 7 7
3 2 3 3 4 4 4 4 3 3 3 4 4 4 4 4 4 4 4 4 4 5 5 5 5 5 6 6 6 6 6 6 6 6 6 6 6 6 6 6 6 6 6 6
2 1 2 2 3 3 4 3 3 3 3 3 3 4 4 3 3 4 4 4 4 4 4 5 5 5 5 5 5 5 5 5 5 5 5 6 6 6 6 6 6 6 6 6
2 1 2 3 3 3 3 3 3 2 2 2 2 4 3 3 3 3 3 3 3 3 4 4 4 4 4 4 4 4 5 5 5 5 5 5 5 5 5 5 5 5 5 5
3 0 1 2 2 2 2 2 2 2 2 2 3 3 3 3 2 2 3 3 3 3 3 3 3 3 4 4 4 4 4 4 4 4 4 4 5 5 5 5 5 5 5 5
1 0 0 1 1 1 2 2 2 2 2 2 3 2 3 2 2 2 2 2 2 2 2 2 3 3 3 3 3 3 4 4 4 4 4 4 4 4 4 4 4 4 4 4
1 0 0 1 1 1 1 1 1 1 2 2 2 2 2 2 2 1 1 2 2 2 2 2 2 2 2 2 3 3 3 3 3 4 4 3 3 3 3 4 4 4 4 4
-0 -0 0 0 0 1 1 1 1 1 1 1 1 1 1 0 0 0 1 1 1 1 1 1 1 2 2 2 2 2 3 3 3 3 3 3 3 3 3 3 3 3 3 3
-0 -1 -1 -1 -0 -0 1 1 1 0 0 -0 0 0 0 0 0 0 1 0 0 0 1 1 1 1 1 2 2 2 2 2 2 2 3 2 3 3 3 3 3 3 3 3
-0 -1 -2 -2 -2 -1 1 1 0 0 -0 -1 -1 -1 -0 0 0 -0 0 -0 -0 -0 0 0 1 1 1 1 1 2 2 2 2 2 2 2 2 2 2 2 2 2 2 2
-1 -1 -2 -2 -1 -0 1 0 1 0 -0 -1 -1 -1 -1 -1 -1 -1 -0 -0 -0 -0 -0 0 0 1 1 1 1 1 1 1 1 1 1 1 1 2 2 2 2 2 2 2
-2 -2 -2 -2 -2 -1 -1 -0 1 0 -0 -0 -1 -1 -1 -1 -1 -1 -1 -1 -1 -1 -1 -0 -0 0 0 0 0 1 1 1 1 1 1 1 1 1 1 1 1 1 1 1
-2 -3 -3 -3 -2 -1 -1 -1 -1 -1 -0 -0 -0 -1 -1 -1 -1 -1 -1 -1 -1 -1 -1 -1 -0 -0 -0 -0 -0 -0 0 0 0 0 0 0 0 0 0 1 1 1 1 1
-3 -2 -3 -2 -1 -1 -1 -1 -0 -0 -1 -1 -1 -1 -1 -1 -1 -2 -2 -2 -2 -2 -1 -1 -1 -1 -1 -1 -1 -1 -1 -1 -0 -0 -0 -0 -0 -0 -0 0 0 0 0 0
-3 -3 -3 -3 -3 -2 -1 -1 -1 -1 -1 -1 -1 -1 -1 -2 -2 -2 -2 -2 -2 -2 -2 -2 -2 -1 -1 -1 -1 -1 -1 -1 -1 -1 -1 -1 -1 -1 -1 -1 -1 -0 -0 -0
-3 -3 -3 -3 -3 -3 -2 -1 -1 -1 -1 -1 -2 -2 -2 -2 -2 -2 -2 -2 -3 -3 -2 -2 -2 -2 -2 -2 -2 -2 -2 -2 -2 -1 -1 -1 -1 -1 -1 -1 -1 -1 -1 -1
-4 -3 -3 -2 -2 -3 -2 -1 -2 -2 -2 -2 -2 -2 -2 -3 -3 -3 -3 -3 -3 -3 -3 -3 -3 -3 -3 -3 -2 -2 -2 -2 -2 -2 -2 -2 -2 -2 -2 -2 -2 -2 -2 -2
Wind_Speed
2 3 2 4 4 3 4 3 3 4 2 1 3 3 3 2 3 4 4 4 4 3 1 2 3 4 4 4 4 4 3 3 3 2 2 2 2 1 1 2 3 4 4 5
3 1 3 2 1 1 2 2 2 1 0 1 3 3 2 2 3 5 6 5 5 3 2 2 3 3 3 3 3 3 3 2 2 2 2 2 2 1 1 2 3 3 4 4
2 2 1 1 0 1 1 3 3 2 3 1 2 1 2 2 2 2 3 4 5 5 4 3 3 2 3 3 2 2 2 2 2 2 2 3 3 3 2 2 1 2 3 3
1 1 1 1 1 1 3 2 3 1 1 2 2 3 4 4 2 2 3 3 3 4 4 4 3 2 3 2 2 2 2 2 2 3 4 4 3 2 1 1 1 1 2 3
1 1 1 0 2 1 2 2 1 2 2 0 0 2 5 2 3 4 4 5 5 5 5 5 4 4 3 3 2 2 2 2 2 2 3 4 2 1 1 1 1 1 1 2
1 1 0 1 2 1 0 3 4 4 3 2 4 4 4 4 6 5 4 5 5 5 4 3 2 2 2 2 2 2 2 2 1 2 2 3 3 2 2 1 1 0 1 1
4 3 3 2 1 1 3 4 2 2 0 4 3 3 5 4 4 6 6 5 4 4 4 4 3 3 2 2 2 2 2 1 1 1 2 2 3 3 3 2 1 1 0 1
1 3 3 3 1 2 1 4 4 3 4 3 1 4 4 3 2 2 3 3 3 3 4 4 4 4 3 2 2 2 2 1 1 1 1 2 2 2 1 1 1 1 1 1
1 3 3 3 2 3 2 1 2 3 1 0 3 3 3 3 2 1 2 3 3 3 3 2 2 2 2 2 2 2 2 1 1 1 1 2 2 2 1 1 1 1 0 0
2 2 3 3 2 2 2 3 3 2 2 1 2 3 3 3 2 0 1 2 2 2 2 2 2 1 2 2 1 1 1 1 0 1 1 1 1 1 1 1 1 1 0 1
2 1 3 2 0 2 1 2 2 2 2 3 2 4 3 3 3 3 2 2 2 2 2 2 1 2 2 2 2 1 1 1 1 1 1 1 1 1 1 1 1 1 0 0
1 2 1 3 3 1 1 2 2 2 2 2 2 4 3 0 1 2 2 2 2 2 2 2 2 2 3 2 2 1 0 0 1 0 1 1 1 1 1 1 0 0 0 1
2 3 1 3 3 2 1 0 1 2 2 2 3 4 3 3 3 2 2 2 2 2 3 3 3 2 1 1 1 1 1 1 1 0 1 1 1 1 0 1 1 1 1 1
3 2 4 5 4 2 2 3 1 3 2 3 5 5 3 2 2 2 1 1 2 2 2 2 2 1 1 1 1 1 1 1 1 0 0 0 0 0 0 1 1 1 1 1
3 2 2 3 3 2 3 5 3 4 5 6 5 5 6 3 2 1 1 1 2 2 1 1 1 1 1 2 2 2 2 1 1 0 0 1 1 0 0 1 1 1 1 1
2 2 1 1 2 2 5 7 5 6 5 6 5 6 5 1 1 1 1 1 1 1 1 1 1 1 1 2 2 2 2 2 1 1 1 1 0 0 1 1 1 1 1 2
1 2 1 2 3 3 5 6 5 3 2 4 6 7 2 0 0 1 0 1 1 2 2 2 2 2 2 2 2 2 2 2 0 0 1 1 0 1 1 1 1 1 1 1
3 3 2 1 3 2 5 2 2 3 2 2 3 2 1 2 1 1 2 1 1 2 3 3 3 3 3 2 2 2 1 1 0 1 1 1 1 1 1 1 1 1 2 2
3 5 3 2 1 6 6 2 1 2 3 2 3 3 1 0 2 2 2 2 1 3 3 3 3 3 2 2 2 1 1 1 1 1 1 2 1 2 1 2 2 2 2 2
3 3 3 3 2 5 5 3 2 2 3 2 1 2 1 1 0 3 3 3 3 3 3 3 3 2 2 2 1 0 1 1 1 2 2 2 2 2 2 2 2 2 2 2
1 1 3 4 4 6 5 3 1 2 5 2 1 2 2 3 4 3 2 2 2 3 3 3 3 2 2 2 1 0 1 2 3 2 2 2 2 2 2 1 1 1 1 1
5 4 4 4 4 7 2 2 4 5 1 0 1 1 1 2 1 1 1 2 2 3 3 3 3 3 3 2 1 1 2 3 2 2 2 2 2 2 2 1 1 1 1 1
5 6 5 6 7 3 2 3 2 1 2 1 1 1 1 1 1 1 1 2 2 2 3 3 2 3 3 2 1 2 3 2 2 2 2 2 2 2 2 1 1 1 1 1
4 2 3 4 6 4 3 2 2 1 2 2 1 1 1 2 2 2 2 2 2 2 3 3 2 3 3 3 2 2 3 2 1 2 2 2 2 2 2 2 1 1 1 2
5 4 3 4 4 3 3 3 3 1 0 0 1 0 1 1 2 2 2 2 2 3 3 2 2 3 4 4 3 3 2 2 2 2 2 2 2 2 2 2 2 2 2 3
4 5 6 6 6 5 5 4 2 2 2 2 1 1 1 1 2 1 2 2 2 3 3 2 3 3 4 4 4 4 3 2 2 2 2 2 2 2 2 2 2 3 3 4
Wind_Direction
32 85 169 205 205 196 184 183 209 235 246 213 197 196 214 151 134 150 158 156 155 169 161 103 94 101 100 90 91 97 101 86 100 97 107 122 132 137 102 71 93 117 125 130
48 167 221 206 225 168 149 167 209 271 255 233 183 213 222 186 180 174 171 172 175 154 109 110 100 97 110 111 101 96 89 90 108 127 145 157 152 153 125 67 71 92 111 123
168 236 221 167 13 158 246 182 186 217 353 21 128 267 220 224 167 166 175 173 171 171 170 160 136 130 127 123 132 126 111 85 79 91 91 84 74 63 55 39 49 54 97 111
7 307 93 80 306 256 244 210 177 176 118 244 152 225 248 213 205 195 201 187 185 184 173 166 159 155 163 167 143 122 114 90 75 106 113 121 123 138 198 196 170 52 88 102
306 351 84 136 274 249 225 267 257 193 159 190 149 174 268 202 218 235 227 213 203 193 183 177 176 178 179 160 137 119 108 90 78 112 132 135 123 137 104 98 101 74 41 66
306 337 101 231 286 244 80 39 36 52 92 214 214 180 256 222 214 220 225 219 205 191 180 170 161 141 134 122 112 105 107 93 73 108 134 136 131 117 104 92 106 87 27 28
355 342 346 1 25 10 75 92 62 20 26 239 217 184 245 251 218 205 209 206 193 176 162 150 142 142 134 128 125 115 110 97 64 91 123 130 137 144 153 161 174 159 80 342
30 310 314 337 192 182 197 138 155 188 208 267 253 216 255 277 258 215 179 169 155 157 156 159 166 164 160 154 145 138 122 99 84 99 136 129 127 129 149 163 171 191 203 216
148 270 306 301 302 141 140 170 163 130 116 230 257 285 300 6 17 50 89 115 138 151 151 150 143 148 157 156 164 165 141 98 71 77 117 127 124 116 126 142 141 173 180 359
152 248 295 311 21 24 142 143 94 126 158 229 270 258 253 275 267 185 133 152 158 120 108 111 112 120 123 138 127 109 116 132 47 63 103 106 135 141 117 124 124 117 49 43
110 167 317 5 12 216 80 99 116 146 169 166 215 263 249 216 201 181 180 152 133 116 114 124 112 99 88 74 74 82 76 51 31 46 75 86 108 112 104 124 149 145 43 37
104 122 269 271 280 252 168 160 148 169 242 195 182 267 322 182 130 134 151 129 110 103 88 79 91 87 78 67 48 29 8 14 329 284 92 88 86 94 89 82 51 33 72 323
117 109 24 342 345 6 2 279 169 142 136 186 182 254 354 43 55 73 102 108 101 84 75 69 67 67 62 46 4 326 323 313 312 20 104 66 72 85 70 17 6 13 15 345
106 133 180 205 234 214 271 281 226 155 185 222 224 241 295 347 20 20 46 113 116 101 82 76 58 28 358 322 302 298 306 311 322 24 118 166 227 210 292 355 4 2 354 337
108 167 196 253 268 224 252 272 254 207 210 214 233 236 262 265 255 262 40 73 78 75 55 50 28 347 336 329 318 308 306 311 316 306 273 247 246 308 5 351 342 3 351 331
105 161 116 311 274 277 288 284 259 244 235 231 250 270 273 267 107 74 59 79 78 35 356 343 330 316 297 295 298 294 296 300 299 238 260 282 305 339 328 319 343 1 349 344
157 148 120 280 325 354 293 265 227 218 228 209 234 248 258 304 204 166 11 53 27 345 338 325 307 285 274 274 276 265 272 292 330 353 354 338 318 313 310 319 344 332 321 325
160 139 150 287 24 256 252 269 191 200 251 246 253 269 235 221 191 99 71 57 353 340 326 316 310 302 296 293 297 285 297 311 4 20 359 343 317 284 302 302 291 295 302 293
164 150 144 149 234 276 290 293 187 197 273 277 251 267 292 60 86 5 15 11 314 307 307 304 302 300 304 304 302 318 344 351 10 353 327 316 303 275 265 267 268 279 286 291
89 114 142 156 187 242 263 299 296 112 289 294 235 238 243 112 233 274 314 329 323 326 327 328 329 335 336 321 319 47 330 342 309 299 296 301 300 276 257 259 270 278 269 274
117 127 187 193 220 262 266 283 96 160 251 277 219 218 192 196 226 258 300 316 317 327 334 342 346 339 325 327 347 340 307 288 296 313 311 318 316 292 270 272 284 284 283 286
181 178 197 179 205 252 262 141 182 218 236 214 215 207 201 227 268 297 308 311 323 337 344 349 350 337 327 341 354 317 301 303 320 325 321 321 320 310 315 313 299 289 281 279
203 196 193 196 214 252 192 194 233 192 190 220 224 244 207 207 237 273 292 305 315 326 333 338 338 332 331 334 341 306 307 311 317 327 318 315 318 319 322 307 290 296 280 269
253 193 187 236 255 257 253 270 298 233 214 236 224 234 199 209 239 262 283 303 313 318 323 330 333 331 326 324 320 303 304 304 309 310 311 313 310 315 320 310 293 275 263 264
226 187 200 242 266 290 269 251 252 252 184 66 327 258 224 217 253 260 277 292 299 310 316 320 312 309 312 319 318 311 306 312 302 295 299 307 306 298 302 308 298 287 273 266
201 188 193 225 219 207 238 232 213 199 213 218 226 304 317 243 254 277 284 288 293 301 309 313 311 307 310 317 316 313 306 297 285 294 296 296 299 302 307 316 332 335 321 321
Height
1486 1490 1492 1491 1491 1491 1492 1494 1496 1495 1492 1494 1495 1496 1496 1495 1496 1497 1497 1498 1499 1500 1502 1503 1504 1505 1506 1507 1508 1509 1510 1511 1512 1513 1514 1515 1516 1517 1519 1520 1521 1521 1522 1522
1491 1492 1490 1489 1490 1490 1491 1494 1496 1494 1492 1494 1496 1497 1495 1495 1496 1496 1496 1497 1498 1500 1501 1502 1503 1504 1504 1505 1506 1507 1508 1509 1510 1511 1512 1513 1515 1516 1517 1518 1519 1520 1520 1520
1492 1491 1489 1490 1491 1491 1492 1494 1495 1495 1494 1493 1495 1499 1497 1495 1495 1495 1496 1496 1497 1498 1499 1500 1501 1502 1503 1504 1505 1506 1507 1508 1509 1510 1511 1512 1513 1514 1515 1516 1517 1518 1518 1519
1492 1490 1490 1491 1492 1491 1493 1491 1491 1493 1497 1501 1498 1505 1498 1495 1495 1495 1495 1495 1496 1497 1498 1499 1500 1501 1502 1503 1504 1505 1506 1506 1507 1508 1509 1509 1510 1511 1512 1513 1515 1516 1516 1516
1494 1492 1492 1493 1493 1492 1492 1490 1491 1492 1497 1501 1500 1505 1501 1495 1495 1494 1493 1493 1494 1495 1496 1497 1499 1500 1501 1502 1503 1503 1504 1505 1506 1506 1507 1508 1509 1510 1511 1512 1513 1513 1514 1514
1494 1493 1493 1493 1492 1492 1492 1493 1493 1496 1501 1506 1501 1505 1502 1497 1492 1491 1491 1491 1491 1493 1494 1496 1497 1499 1500 1500 1501 1502 1503 1504 1504 1505 1505 1506 1507 1508 1508 1509 1510 1511 1511 1512
1498 1496 1494 1493 1494 1494 1494 1500 1506 1508 1510 1506 1498 1500 1499 1491 1488 1488 1488 1489 1489 1491 1492 1494 1495 1497 1498 1499 1499 1500 1501 1502 1502 1503 1504 1504 1505 1506 1506 1507 1507 1508 1508 1509
1505 1503 1497 1496 1495 1496 1497 1500 1508 1509 1509 1505 1499 1499 1495 1489 1487 1486 1487 1487 1488 1489 1491 1492 1494 1495 1496 1497 1498 1499 1499 1500 1500 1501 1501 1502 1503 1504 1504 1505 1505 1505 1506 1507
1507 1504 1498 1496 1494 1495 1498 1501 1501 1508 1510 1510 1504 1499 1493 1488 1487 1486 1486 1487 1488 1489 1490 1491 1492 1494 1495 1495 1496 1497 1497 1498 1499 1499 1500 1500 1501 1501 1502 1503 1503 1503 1504 1504
1504 1506 1500 1497 1495 1496 1497 1499 1505 1508 1508 1507 1504 1502 1499 1492 1490 1488 1487 1487 1487 1489 1489 1490 1491 1492 1493 1494 1495 1496 1496 1497 1497 1498 1498 1498 1499 1499 1500 1500 1500 1501 1501 1502
1504 1507 1504 1501 1500 1500 1500 1501 1504 1508 1507 1508 1507 1503 1491 1490 1489 1489 1488 1487 1487 1488 1489 1490 1490 1491 1492 1493 1494 1494 1495 1495 1496 1496 1496 1496 1497 1497 1498 1498 1498 1499 1499 1499
1504 1508 1509 1505 1501 1500 1499 1501 1504 1507 1508 1508 1507 1504 1490 1489 1488 1488 1488 1488 1488 1488 1489 1489 1490 1491 1491 1492 1492 1492 1493 1494 1494 1494 1495 1495 1495 1495 1495 1496 1496 1496 1497 1497
1504 1509 1511 1505 1506 1503 1502 1501 1502 1505 1509 1511 1508 1502 1491 1489 1489 1489 1489 1489 1489 1489 1489 1489 1489 1490 1490 1491 1491 1491 1492 1492 1493 1493 1493 1493 1493 1493 1493 1493 1494 1494 1494 1495
1502 1509 1510 1507 1504 1505 1504 1502 1501 1503 1507 1507 1500 1496 1493 1491 1491 1490 1489 1489 1489 1489 1489 1489 1489 1489 1489 1490 1490 1490 1490 1490 1491 1491 1491 1491 1491 1491 1491 1491 1491 1491 1492 1492
1503 1509 1508 1506 1503 1503 1503 1502 1500 1500 1500 1501 1495 1494 1492 1492 1491 1491 1490 1489 1489 1489 1489 1488 1488 1488 1488 1488 1488 1488 1488 1489 1489 1489 1489 1489 1489 1489 1489 1489 1489 1489 1489 1489
1504 1508 1507 1506 1503 1502 1501 1499 1498 1499 1498 1497 1494 1494 1490 1490 1490 1490 1489 1489 1489 1488 1488 1488 1488 1487 1487 1487 1487 1486 1486 1487 1487 1487 1487 1487 1487 1487 1486 1486 1486 1486 1486 1486
1505 1508 1510 1509 1506 1502 1504 1498 1497 1497 1496 1495 1494 1492 1490 1491 1490 1489 1489 1489 1488 1488 1488 1487 1487 1486 1486 1485 1485 1484 1484 1484 1484 1484 1484 1485 1485 1484 1484 1484 1484 1483 1483 1483
1504 1508 1512 1512 1511 1512 1499 1494 1493 1494 1494 1493 1491 1490 1489 1489 1489 1489 1489 1489 1488 1487 1487 1486 1485 1484 1484 1483 1483 1483 1482 1482 1482 1482 1482 1482 1482 1482 1482 1482 1481 1481 1481 1480
1500 1505 1512 1516 1517 1508 1497 1493 1493 1494 1493 1491 1490 1489 1489 1488 1488 1488 1488 1488 1487 1486 1485 1484 1483 1483 1482 1481 1481 1480 1480 1480 1480 1480 1479 1480 1480 1479 1479 1479 1479 1478 1478 1478
1502 1504 1510 1514 1513 1507 1495 1492 1490 1493 1494 1489 1488 1488 1488 1488 1491 1489 1487 1486 1485 1485 1484 1482 1482 1481 1480 1479 1479 1478 1478 1478 1477 1477 1477 1477 1477 1476 1476 1476 1476 1476 1475 1475
1508 1509 1511 1512 1511 1502 1493 1491 1491 1497 1493 1488 1486 1486 1487 1487 1488 1487 1486 1485 1484 1483 1482 1481 1480 1479 1478 1478 1477 1476 1476 1476 1475 1475 1475 1474 1474 1474 1474 1473 1473 1473 1472 1472
1506 1508 1510 1510 1509 1501 1489 1489 1491 1490 1487 1486 1485 1486 1485 1485 1485 1484 1483 1483 1482 1481 1480 1479 1478 1477 1477 1476 1475 1474 1474 1473 1473 1473 1472 1472 1471 1471 1470 1470 1470 1470 1470 1469
1501 1499 1499 1499 1496 1489 1487 1486 1486 1485 1485 1484 1484 1484 1484 1483 1483 1482 1482 1481 1481 1480 1479 1478 1477 1476 1475 1474 1474 1472 1472 1472 1472 1471 1470 1469 1469 1468 1467 1467 1467 1467 1466 1466
1494 1492 1494 1493 1489 1487 1486 1485 1484 1484 1483 1483 1483 1483 1482 1481 1481 1481 1480 1479 1479 1478 1477 1476 1475 1474 1473 1473 1472 1471 1470 1470 1469 1467 1467 1466 1466 1465 1465 1465 1465 1464 1464 1463
1489 1490 1490 1489 1486 1484 1483 1483 1482 1482 1482 1482 1481 1481 1480 1480 1479 1479 1478 1477 1477 1476 1475 1474 1473 1472 1471 1470 1469 1469 1468 1467 1466 1465 1464 1464 1463 1462 1462 1462 1462 1461 1461 1461
1484 1485 1486 1483 1480 1481 1480 1480 1480 1480 1480 1479 1479 1478 1478 1478 1477 1476 1476 1475 1475 1474 1473 1472 1471 1470 1469 1468 1467 1466 1465 1464 1463 1462 1461 1461 1460 1460 1459 1459 1459 1458 1459 1458